Location: Buchberg
(46.9333°N, 15.8500°E)
Time: 04:37:45
(UTC+00:00)

Cosmos 1733 Rocket - Pass Details

Date: 14 July 2020
Orbit: 604 x 627 km, 82.5° (Epoch: 10 August)

Event Time Altitude Azimuth Distance (km) Brightness Sun altitude
Exits shadow 01:29:33 20° 190° (S) 1,425 4.4 -13.8°
Maximum altitude 01:32:33 86° 279° (W) 613 3.0 -13.6°
Drops below altitude 10° 01:36:54 10° 8° (N) 1,964 6.7 -13.1°
Sets 01:39:08 0° 9° (N) 2,873 7.7 -12.9°
